Satellite-Ground Cal/Val Region Overpasses Predictions

Prediction of Satellite NPP Overpassing Cal/Val Region: PacNW

Region Location: (Latitude: 10.00, Longitude: 139.50) to (Latitude: 22.70, Longitude: 165.60).

Table of predicted overpasses for the next 14.0 days since TLE Epoch: 7/14/2017
Interval Starting Time Starting Location Ending Time Ending Location
1 07/15/2017 03:04:22 ( 10.03, 153.66) 07/15/2017 03:07:57 ( 22.66, 150.65)
2 07/15/2017 15:36:15 ( 22.66, 150.90) 07/15/2017 15:39:50 ( 10.04, 147.89)
3 07/16/2017 02:45:20 ( 10.01, 158.42) 07/16/2017 02:48:56 ( 22.69, 155.40)
4 07/16/2017 15:17:12 ( 22.68, 155.66) 07/16/2017 15:20:48 ( 10.00, 152.64)
5 07/17/2017 02:26:18 ( 10.05, 163.17) 07/17/2017 02:29:53 ( 22.68, 160.17)
6 07/17/2017 14:58:11 ( 22.64, 160.41) 07/17/2017 15:01:46 ( 10.02, 157.41)
7 07/18/2017 02:10:06 ( 20.02, 165.59) 07/18/2017 02:10:51 ( 22.66, 164.93)
8 07/18/2017 03:48:46 ( 10.04, 142.56) 07/18/2017 03:52:21 ( 22.66, 139.56)
9 07/18/2017 14:39:08 ( 22.66, 165.18) 07/18/2017 14:42:43 ( 10.04, 162.17)
10 07/18/2017 16:20:38 ( 22.65, 139.80) 07/18/2017 16:20:58 ( 21.48, 139.51)
11 07/19/2017 03:29:43 ( 10.02, 147.32) 07/19/2017 03:33:18 ( 22.64, 144.32)
12 07/19/2017 16:01:36 ( 22.67, 144.56) 07/19/2017 16:05:11 ( 10.05, 141.56)
13 07/20/2017 03:10:41 ( 10.00, 152.09) 07/20/2017 03:14:17 ( 22.69, 149.07)
14 07/20/2017 15:42:33 ( 22.69, 149.33) 07/20/2017 15:46:09 ( 10.01, 146.31)
15 07/21/2017 02:51:39 ( 10.04, 156.84) 07/21/2017 02:55:14 ( 22.67, 153.83)
16 07/21/2017 15:23:32 ( 22.65, 154.08) 07/21/2017 15:27:07 ( 10.03, 151.07)
17 07/22/2017 02:32:37 ( 10.03, 161.60) 07/22/2017 02:36:12 ( 22.65, 158.60)
18 07/22/2017 15:04:29 ( 22.67, 158.84) 07/22/2017 15:08:04 ( 10.05, 155.84)
19 07/23/2017 02:14:31 ( 13.36, 165.59) 07/23/2017 02:17:10 ( 22.69, 163.35)
20 07/23/2017 03:55:04 ( 10.02, 140.99) 07/23/2017 03:56:53 ( 16.42, 139.50)
21 07/23/2017 14:45:27 ( 22.69, 163.61) 07/23/2017 14:49:03 ( 10.01, 160.59)
22 07/24/2017 03:36:03 ( 10.06, 145.74) 07/24/2017 03:39:38 ( 22.68, 142.74)
23 07/24/2017 14:29:43 ( 11.09, 165.60) 07/24/2017 14:30:01 ( 10.03, 165.35)
24 07/24/2017 16:07:55 ( 22.70, 142.99) 07/24/2017 16:11:31 ( 10.02, 139.98)
25 07/25/2017 03:17:00 ( 10.04, 150.50) 07/25/2017 03:20:35 ( 22.66, 147.50)
26 07/25/2017 15:48:53 ( 22.66, 147.74) 07/25/2017 15:52:28 ( 10.04, 144.74)
27 07/26/2017 02:57:58 ( 10.02, 155.27) 07/26/2017 03:01:33 ( 22.65, 152.26)
28 07/26/2017 15:29:51 ( 22.68, 152.51) 07/26/2017 15:33:26 ( 10.06, 149.50)
29 07/27/2017 02:38:55 ( 10.01, 160.03) 07/27/2017 02:42:31 ( 22.69, 157.01)
30 07/27/2017 15:10:48 ( 22.69, 157.27) 07/27/2017 15:14:24 ( 10.02, 154.25)
31 07/28/2017 02:19:54 ( 10.05, 164.78) 07/28/2017 02:23:29 ( 22.68, 161.78)


NCC Satellite Cal/Val Overpasses Prediction Service
